Bowling Green, Kentucky, United States (42101)
Lat: 36.99N, Lon: 86.44W
Wx Zone: KYZ071
Local Info
Past Weather Observations for Monday, April 13, 2015

NOTE: This archive is for the closest National Weather Service station to Bowling Green. Information may differ from the station used for current weather conditions.

Click here for Long-term Archive

Time Weather Temperature Dewpoint Humidity Pressure Winds Precip Visibility
23:50
Overcast
Rain
64°F / 18°C 64°F / 18°C 100% 30.04 in
(1017 mb)
NE 3.5 mph
(NE 6 kph)
0.11 in
(2.79 mm)
7SM
23:30
Overcast
Light Rain
64°F / 18°C 64°F / 18°C 100% 30.04 in
(1017 mb)
NE 4.6 mph
(NE 7 kph)
0.09 in
(2.29 mm)
7SM
23:10
Overcast
Rain
64°F / 18°C 64°F / 18°C 100% 30.04 in
(1017 mb)
ENE 4.6 mph
(ENE 7 kph)
0.04 in
(1.02 mm)
5SM
22:50
Overcast
Rain
64°F / 18°C 64°F / 18°C 100% 30.04 in
(1017 mb)
ENE 5.8 mph
(ENE 9 kph)
0.12 in
(3.05 mm)
4SM
22:30
Overcast
Rain
64°F / 18°C 64°F / 18°C 100% 30.04 in
(1017 mb)
ENE 4.6 mph
(ENE 7 kph)
0.04 in
(1.02 mm)
7SM
22:10
Overcast
Rain
64°F / 18°C 64°F / 18°C 100% 30.06 in
(1018 mb)
ENE 4.6 mph
(ENE 7 kph)
0.01 in
(0.25 mm)
7SM
21:50
Overcast
64°F / 18°C 64°F / 18°C 100% 30.06 in
(1018 mb)
ENE 5.8 mph
(ENE 9 kph)
- 10SM
21:30
Overcast
64°F / 18°C 64°F / 18°C 100% 30.06 in
(1018 mb)
ENE 4.6 mph
(ENE 7 kph)
- 10SM
21:10
Overcast
64°F / 18°C 64°F / 18°C 100% 30.06 in
(1018 mb)
ENE 4.6 mph
(ENE 7 kph)
- 10SM
20:50
Overcast
64°F / 18°C 64°F / 18°C 100% 30.06 in
(1018 mb)
ENE 4.6 mph
(ENE 7 kph)
- 10SM
20:30
Overcast
64°F / 18°C 64°F / 18°C 100% 30.06 in
(1018 mb)
NE 4.6 mph
(NE 7 kph)
- 10SM
20:10
Overcast
64°F / 18°C 64°F / 18°C 100% 30.06 in
(1018 mb)
ENE 3.5 mph
(ENE 6 kph)
- 10SM
19:50
Overcast
Light Rain
66°F / 19°C 66°F / 19°C 100% 30.06 in
(1018 mb)
ENE 3.5 mph
(ENE 6 kph)
0.01 in
(0.25 mm)
7SM
19:30
Overcast
Drizzle
64°F / 18°C 64°F / 18°C 100% 30.06 in
(1018 mb)
ENE 3.5 mph
(ENE 6 kph)
- 7SM
19:10
Overcast
Unknown Precip
66°F / 19°C 66°F / 19°C 100% 30.06 in
(1018 mb)
E 3.5 mph
(E 6 kph)
- 7SM
18:50
Overcast
Drizzle
66°F / 19°C 66°F / 19°C 100% 30.06 in
(1018 mb)
ESE 3.5 mph
(ESE 6 kph)
0.01 in
(0.25 mm)
5SM
18:30
Overcast
Drizzle
66°F / 19°C 66°F / 19°C 100% 30.06 in
(1018 mb)
Calm 0.01 in
(0.25 mm)
5SM
18:10
Overcast
Light Rain
66°F / 19°C 66°F / 19°C 100% 30.06 in
(1018 mb)
Calm - 4SM
17:50
Overcast
Drizzle
66°F / 19°C 66°F / 19°C 100% 30.06 in
(1018 mb)
SE 3.5 mph
(SE 6 kph)
- 3SM
17:30
Overcast
Rain
66°F / 19°C 66°F / 19°C 100% 30.06 in
(1018 mb)
Calm - 10SM
17:10
Overcast
66°F / 19°C 66°F / 19°C 100% 30.06 in
(1018 mb)
Calm - 10SM
16:50
Overcast
Light Rain
66°F / 19°C 66°F / 19°C 100% 30.06 in
(1018 mb)
SE 3.5 mph
(SE 6 kph)
0.01 in
(0.25 mm)
10SM
16:30
Overcast
Light Rain
66°F / 19°C 66°F / 19°C 100% 30.06 in
(1018 mb)
SE 3.5 mph
(SE 6 kph)
- 10SM
16:10
Overcast
Light Rain
66°F / 19°C 66°F / 19°C 100% 30.06 in
(1018 mb)
SE 3.5 mph
(SE 6 kph)
- 10SM
15:50
Overcast
Light Rain
66°F / 19°C 66°F / 19°C 100% 30.06 in
(1018 mb)
Calm 0.07 in
(1.78 mm)
7SM
15:30
Overcast
Rain
66°F / 19°C 66°F / 19°C 100% 30.06 in
(1018 mb)
Calm 0.04 in
(1.02 mm)
4SM
15:10
Overcast
Rain
66°F / 19°C 66°F / 19°C 100% 30.06 in
(1018 mb)
Calm 0.02 in
(0.51 mm)
4SM
14:50
Overcast
Heavy Rain
66°F / 19°C 66°F / 19°C 100% 30.06 in
(1018 mb)
Calm 0.11 in
(2.79 mm)
2SM
14:30
Overcast
Rain
66°F / 19°C 66°F / 19°C 100% 30.06 in
(1018 mb)
Calm 0.03 in
(0.76 mm)
3SM
14:10
Overcast
Light Rain
66°F / 19°C 64°F / 18°C 94% 30.06 in
(1018 mb)
S 3.5 mph
(S 6 kph)
0.01 in
(0.25 mm)
4SM
13:50
Overcast
Drizzle
66°F / 19°C 66°F / 19°C 100% 30.06 in
(1018 mb)
SW 4.6 mph
(SW 7 kph)
- 3SM
13:30
Overcast
Rain
68°F / 20°C 63°F / 17°C 83% 30.09 in
(1019 mb)
S 4.6 mph
(S 7 kph)
- 5SM
13:10
Overcast
68°F / 20°C 63°F / 17°C 83% 30.09 in
(1019 mb)
S 5.8 mph
(S 9 kph)
- 10SM
12:50
Overcast
Drizzle
66°F / 19°C 63°F / 17°C 88% 30.09 in
(1019 mb)
S 3.5 mph
(S 6 kph)
- 3SM
12:30
Overcast
Rain
68°F / 20°C 63°F / 17°C 83% 30.09 in
(1019 mb)
SSE 6.9 mph
(SSE 11 kph)
- 5SM
12:10
Overcast
73°F / 23°C 59°F / 15°C 61% 30.09 in
(1019 mb)
SSE 8.1 mph
(SSE 13 kph)
- 10SM
11:50
Overcast
73°F / 23°C 59°F / 15°C 61% 30.09 in
(1019 mb)
S 8.1 mph
(S 13 kph)
- 10SM
11:30
Overcast
75°F / 24°C 59°F / 15°C 57% 30.09 in
(1019 mb)
S 9.2 mph
(S 15 kph)
- 10SM
11:10
Overcast
73°F / 23°C 59°F / 15°C 61% 30.12 in
(1020 mb)
S 9.2 mph
(S 15 kph)
- 10SM
10:50
Overcast
73°F / 23°C 59°F / 15°C 61% 30.12 in
(1020 mb)
SW 8.1 mph
(SW 13 kph)
- 10SM
10:30
Overcast
73°F / 23°C 59°F / 15°C 61% 30.12 in
(1020 mb)
S 11.5 mph
(S 19 kph)
- 10SM
10:10
Overcast
73°F / 23°C 57°F / 14°C 57% 30.12 in
(1020 mb)
S 10.4 mph
(S 17 kph)
- 10SM
09:50
Overcast
72°F / 22°C 57°F / 14°C 61% 30.12 in
(1020 mb)
SSE 10.4 mph
(SSE 17 kph)
- 10SM
09:30
Mostly Cloudy
73°F / 23°C 57°F / 14°C 57% 30.12 in
(1020 mb)
S 15 mph
(S 24 kph)
- 10SM
09:10
Partly Cloudy
72°F / 22°C 57°F / 14°C 61% 30.12 in
(1020 mb)
SSE 11.5 mph
(SSE 19 kph)
- 10SM
08:50
Clear
70°F / 21°C 55°F / 13°C 60% 30.12 in
(1020 mb)
S 10.4 mph
(S 17 kph)
- 10SM
08:30
Mostly Cloudy
72°F / 22°C 55°F / 13°C 57% 30.15 in
(1021 mb)
S 9.2 mph
(S 15 kph)
- 10SM
08:10
Overcast
70°F / 21°C 55°F / 13°C 60% 30.15 in
(1021 mb)
S 4.6 mph
(S 7 kph)
- 10SM
07:50
Mostly Cloudy
68°F / 20°C 54°F / 12°C 60% 30.15 in
(1021 mb)
S 8.1 mph
(S 13 kph)
- 10SM
07:30
Overcast
66°F / 19°C 54°F / 12°C 64% 30.15 in
(1021 mb)
SSE 6.9 mph
(SSE 11 kph)
- 10SM
07:10
Overcast
64°F / 18°C 52°F / 11°C 64% 30.15 in
(1021 mb)
SSW 3.5 mph
(SSW 6 kph)
- 10SM
06:50
Mostly Cloudy
64°F / 18°C 52°F / 11°C 64% 30.15 in
(1021 mb)
SSE 4.6 mph
(SSE 7 kph)
- 10SM
06:30
Overcast
63°F / 17°C 52°F / 11°C 68% 30.15 in
(1021 mb)
SE 3.5 mph
(SE 6 kph)
- 10SM
06:10
Overcast
59°F / 15°C 52°F / 11°C 77% 30.15 in
(1021 mb)
Calm - 10SM
05:50
Overcast
59°F / 15°C 50°F / 10°C 72% 30.15 in
(1021 mb)
Calm - 10SM
05:30
Mostly Cloudy
57°F / 14°C 52°F / 11°C 82% 30.15 in
(1021 mb)
Calm - 10SM
05:10
Clear
57°F / 14°C 50°F / 10°C 77% 30.15 in
(1021 mb)
Calm - 10SM
04:50
Clear
59°F / 15°C 50°F / 10°C 72% 30.12 in
(1020 mb)
Calm - 10SM
04:30
Clear
61°F / 16°C 50°F / 10°C 68% 30.12 in
(1020 mb)
Calm - 10SM
04:10
Clear
61°F / 16°C 50°F / 10°C 68% 30.12 in
(1020 mb)
Calm - 10SM
03:50
Clear
61°F / 16°C 50°F / 10°C 68% 30.12 in
(1020 mb)
S 3.5 mph
(S 6 kph)
- 10SM
03:30
Clear
63°F / 17°C 50°F / 10°C 64% 30.12 in
(1020 mb)
S 3.5 mph
(S 6 kph)
- 10SM
03:10
Clear
63°F / 17°C 50°F / 10°C 64% 30.09 in
(1019 mb)
S 3.5 mph
(S 6 kph)
- 10SM
02:50
Clear
63°F / 17°C 50°F / 10°C 64% 30.09 in
(1019 mb)
S 3.5 mph
(S 6 kph)
- 10SM
02:30
Clear
63°F / 17°C 50°F / 10°C 64% 30.09 in
(1019 mb)
SSE 3.5 mph
(SSE 6 kph)
- 10SM
02:10
Clear
64°F / 18°C 50°F / 10°C 60% 30.09 in
(1019 mb)
SSE 3.5 mph
(SSE 6 kph)
- 10SM
01:50
Clear
64°F / 18°C 52°F / 11°C 64% 30.09 in
(1019 mb)
S 3.5 mph
(S 6 kph)
- 10SM
01:30
Clear
64°F / 18°C 52°F / 11°C 64% 30.09 in
(1019 mb)
S 3.5 mph
(S 6 kph)
- 10SM
01:10
Clear
64°F / 18°C 52°F / 11°C 64% 30.09 in
(1019 mb)
S 4.6 mph
(S 7 kph)
- 10SM
00:50
Clear
64°F / 18°C 52°F / 11°C 64% 30.09 in
(1019 mb)
S 5.8 mph
(S 9 kph)
- 10SM
00:30
Clear
66°F / 19°C 52°F / 11°C 60% 30.09 in
(1019 mb)
S 4.6 mph
(S 7 kph)
- 10SM
00:10
Clear
66°F / 19°C 52°F / 11°C 60% 30.09 in
(1019 mb)
S 6.9 mph
(S 11 kph)
- 10SM
Time Weather Temperature Dewpoint Humidity Pressure Winds Precip Visibility


Weather for websites

WeatherForYou.com, LLC is not responsible for any damages or problems caused by this service. Current weather conditions are obtained from the closest station including government and personal stations which may have varying degrees of accuracy. Weather forecasts are derived from the NOAA NDFD. Like all things, this site belongs to Jesus Christ... He just trusts me to maintain it. If you have any questions or comments email webmaster@weatherforyou.com

Copyright © 2015, WeatherForYou.com LLC. All rights reserved.